Weather Roundup
Issued by NWS Chicago, IL

Home | Current Version | Previous Version | Graphics & Text | Print | Product List | Glossary On
Versions: 1 2 3 4 5 6 7 8 9 10 11 12 13 14 15 16 17 18 19 20 21 22 23 24 25 26 27 28 29 30 31 32 33 34 35 36 37 38 39 40 41 42 43 44 45 46 47 48 49 50
000
NZUS59 KLOT 251800
HRRLOT

CHICAGO AREA WEATHER ROUNDUP
NATIONAL WEATHER SERVICE CHICAGO/ROMEOVILLE IL
100 PM CDT FRI JUL 25 2014

NOTE: "FAIR" INDICATES FEW OR NO CLOUDS BELOW 12,000 FEET WITH NO
SIGNIFICANT WEATHER AND/OR OBSTRUCTIONS TO VISIBILITY.

* THESE STATIONS ARE NOT UNDER NWS QUALITY CONTROL. THEY ALSO MAY NOT
  REPORT WEATHER SUCH AS PRECIPITATION OR FOG.

ILZ005-006-012>014-019>023-251900-
NORTHEAST ILLINOIS

CITY           SKY/WX    TMP DP  RH WIND       PRES   REMARKS
OHARE          CLOUDY    73  55  53 SW16      29.97F
6HR MIN TEMP:  62; 6HR MAX TEMP:  73; 6HR PCP: TRACE;

MIDWAY         CLOUDY    73  58  59 SW15      29.99F
6HR MIN TEMP:  63; 6HR MAX TEMP:  74; 6HR PCP: TRACE;

AURORA         CLOUDY    71  59  65 S14       29.95F
6HR MIN TEMP:  55; 6HR MAX TEMP:  71; 6HR PCP: TRACE;

WAUKEGAN       CLOUDY    72  56  57 S14G22    29.95F
6HR MIN TEMP:  62; 6HR MAX TEMP:  75;

DUPAGE AIRPORT CLOUDY    72  59  63 S16       29.95F
6HR MIN TEMP:  58; 6HR MAX TEMP:  72; 6HR PCP: TRACE;

WHEELING       CLOUDY    74  56  53 SW17G24   29.97F
6HR MIN TEMP:  63; 6HR MAX TEMP:  75; 6HR PCP: TRACE;

NORTHERLY IS     N/A     72  54  53 S15         N/A
$$

WIZ051-052-058>065-066-070>072-251900-
SOUTHEAST WISCONSIN

CITY           SKY/WX    TMP DP  RH WIND       PRES   REMARKS
MILWAUKEE      CLOUDY    71  56  58 SW15      29.94F
6HR MIN TEMP:  63; 6HR MAX TEMP:  74;

KENOSHA*       CLOUDY    71  57  61 SW15G23   29.96F
RACINE*        CLOUDY    73  57  57 SW15G22   29.96F
WAUKESHA       CLOUDY    66  55  68 S15       29.95F
$$

INZ001>003-010>013-019-020-251900-
NORTHWEST INDIANA

CITY           SKY/WX    TMP DP  RH WIND       PRES   REMARKS
GARY*          CLOUDY    72  55  56 S9        30.00F
MICHIGAN CITY* NOT AVBL
RENSSELAER*    NOT AVBL
VALPARAISO     PTSUNNY   72  54  53 SW13      30.02F
$$

LMZ740>746-251900-
SOUTHERN LAKE MICHIGAN

STATION/POSITION TIME  SKY/WX   TEMP WIND        PRES    VSBY
                                AIR  DIR/SP/G
                 (UTC)          (F)  (DEG/KT/KT) (MB)    (MI)
HARRISON CRIB    1700            69  190/ 18/ 21   N/A
BURNHAM HARBOR   1800            72  200/  9/ 13   N/A
CALUMET HARBOR   1700            71  200/  9/ 14 1014.2F
BURNS HARBOR     1800            73  190/ 18/ 21 1015.9F
MICHIGAN CITY    1700            70  180/  7/ 10   N/A
$$

ABBREVIATIONS USED IN REMARKS
   TC - TEMPERATURE IN CELSIUS
  WCI - WIND CHILL INDEX
   HX - HEAT INDEX
  VSB - VISIBILITY
$$



USA.gov is the U.S. government's official web portal to all federal, state and local government web resources and services.